www.pogodaiklimat.ru

Погода и климат >> Архив погоды >> Россия >> Волгоградская область >> Серафимович


ПОГОДА в Серафимовиче

  • Прогноз погоды в Серафимовиче
  • Монитор погоды в Серафимовиче

АРХИВ ПОГОДЫ в Серафимовиче

Время (UTC), дата Ветер
(напр.,м/с)
 
Видим.   Явления Облачность Т
(С)
Тd
(С)
f
(%)
Тe
(С)
Тes
(С)
Комфортность P
(гПа)
Po
(гПа)
Тmin
(С)
Tmax
(С)
R
(мм)
R24
(мм)
S
(см)
15 12.06 ЮВ 1 20 км 9/3 600 м
[Cu hum Ci fib]
+35.6 +1.0 11 +32 +34 жарко 1011.2 997.3 +36.9
18 12.06 В 1 20 км 8/0
[Ac trans Ci fib]
+28.0 +6.9 26 +27 +27 жарко 1012.0 997.8
21 12.06 СВ 2 20 км 6/0
[Ci fib]
+24.6 +7.3 33 +25 +25 комфорт 1012.2 997.8
00 13.06 СЗ 1 20 км 3/0
[Ci fib]
+20.6 +8.8 47 +23 +23 комфорт 1012.7 998.1
03 13.06 СЗ 2 20 км 3/0
[Ac trans Ci fib]
+19.6 +10.1 54 +21 +23 комфорт 1013.1 998.5 +19.5
06 13.06 С 3 20 км ясно +30.1 +13.6 36 +32 +41 жарко 1012.9 998.8
09 13.06 СВ 4
{10}
20 км ясно +32.3 +12.3 30 +33 +45 жарко 1013.5 999.5
12 13.06 С 6-11
{12}
20 км ясно +30.1 +11.7 32 +31 +35 жарко 1014.2 1000.1
15 13.06 СВ 3
{12}
20 км ясно +28.3 +11.0 34 +29 +31 жарко 1015.6 1001.4 +32.6
18 13.06 В 4
{10}
20 км ясно +22.9 +8.9 41 +24 +24 комфорт 1017.5 1003.0
21 13.06 В 4 20 км ясно +18.7 +4.4 39 +19 +19 1019.7 1004.9
00 14.06 В 3 20 км ясно +13.7 +2.9 48 +13 +13 1021.7 1006.6
03 14.06 В 3 20 км ясно +13.5 +3.1 49 +13 +14 1022.7 1007.6 +11.8
06 14.06 В 3 20 км ясно +19.6 +1.7 30 +20 +29 1022.2 1007.4
09 14.06 СВ 3 20 км ясно +23.8 -1.1 19 +22 +37 комфорт 1021.4 1006.8
12 14.06 ЮВ 1 20 км ясно +26.0 -3.8 14 +24 +38 комфорт 1019.2 1004.8
15 14.06 СЗ 1 20 км ясно +25.9 -2.7 15 +24 +26 комфорт 1017.7 1003.3 +26.7
18 14.06 Ю 1 20 км ясно +21.2 -1.9 21 +21 +21 комфорт 1016.7 1002.1
21 14.06 ЮЗ 2 20 км ясно +20.3 -2.4 22 +21 +21 комфорт 1016.7 1002.0
00 15.06 ЮЗ 3 20 км ясно +18.9 -0.9 26 +19 +19 1015.0 1000.3
03 15.06 ЮЗ 3 20 км ясно +19.0 +1.8 32 +19 +21 1014.2 999.5 +17.4
06 15.06 ЮЗ 2 20 км 3/0
[Ci fib]
+25.4 +6.2 29 +25 +35 комфорт 1013.4 999.0
09 15.06 СЗ 3 20 км 3/3 600 м
[Cu hum Ci fib]
+30.3 +10.2 29 +30 +41 жарко 1011.7 997.6
12 15.06 СЗ 2
{10}
20 км 6/6 600 м
[Cu med, cong]
+31.8 +11.4 29 +32 +37 жарко 1010.0 996.0
15 15.06 С 2
{14}
20 км 8/8 600 м
[Cb calv]
+25.7 +16.2 56 +29 +30 душно 1010.9 996.6 +32.5
18 15.06 З 2
{10}
20 км гроза без осадков {ливн. осадки} 10/10 300 м
[Cb calv]
+20.9 +16.3 75 +25 +25 комфорт 1012.1 997.5
21 15.06 З 1 20 км {гроза} 8/6 600 м
[Cb calv Ci fib]
+19.6 +16.3 81 +23 +23 комфорт 1010.8 996.2
00 16.06 ЮЗ 2 20 км {гроза} 8/8 600 м
[Cb calv]
+18.5 +16.2 86 +20 +20 1011.2 996.6
03 16.06 З 2 20 км 8/0
[Ci sp]
+18.5 +15.9 85 +20 +21 1010.7 996.1 +17.7 0.0
06 16.06 З 1 20 км 8/0
[Ac trans Ci fib]
+24.7 +17.7 65 +29 +38 душно 1010.4 996.1
09 16.06 СЗ 1 20 км 8/3 600 м
[Cu hum Ac trans Ci fib]
+27.7 +15.0 46 +30 +40 жарко 1009.8 995.6
12 16.06 С 4
{10}
20 км 9/3 600 м
[Cb calv Ac trans Ci fib]
+26.8 +14.1 46 +29 +32 жарко 1009.2 995.0
15 16.06 С 2
{13}
20 км в посл. час гроза {ливн. осадки} 10/8 600 м
[Cb calv Ac und]
+21.5 +16.5 73 +25 +25 комфорт 1009.8 995.4 +28.5 2
18 16.06 З 1 20 км в посл. час ливневой дождь {гроза} 10/6 600 м
[Cb calv Ac und]
+19.3 +17.6 90 +22 +22 комфорт 1010.5 996.0
21 16.06 З 1 20 км 10/8 600 м
[Cb calv Ac und]
+18.3 +12.8 70 +20 +20 1011.3 996.7
00 17.06 СЗ 1 20 км 6/4 600 м
[Cb calv Ac trans]
+16.2 +10.1 67 +17 +17 1011.7 997.0
03 17.06 СВ 1 20 км 3/0
[Ci fib]
+16.7 +9.6 63 +18 +20 1012.7 997.9 +15.0 2
06 17.06 СВ 3 20 км ясно +23.2 +9.0 40 +25 +34 комфорт 1013.4 998.9
09 17.06 С 4
{10}
20 км 3/3 300 м
[Cu hum]
+25.8 +8.3 33 +26 +35 жарко 1013.6 999.3
12 17.06 С 3 20 км 3/3 300 м
[Cu hum]
+27.6 +8.3 30 +27 +35 жарко 1012.7 998.5
15 17.06 С 3
{10}
20 км ясно +26.8 +8.7 32 +27 +29 жарко 1012.4 998.2 +27.7
18 17.06 С 1 20 км ясно +22.0 +9.9 46 +24 +24 комфорт 1013.2 998.6
21 17.06 З 1 20 км ясно +21.0 +10.0 49 +24 +24 комфорт 1013.5 998.9
00 18.06 ЮЗ 2 20 км 4/0
[Ac trans]
+17.9 +10.7 63 +18 +18 1013.6 998.9
03 18.06 З 2 20 км 3/0
[Ac trans]
+18.4 +11.7 65 +19 +21 1014.1 999.4 +17.2
06 18.06 З 1 20 км ясно +25.2 +11.2 41 +26 +39 жарко 1013.8 999.4
09 18.06 СЗ 4 20 км 8/8 600 м
[Cu hum]
+27.2 +9.1 32 +27 +30 жарко 1012.9 998.6
12 18.06 СЗ 2 20 км 8/8 600 м
[Cu hum]
+29.6 +8.3 26 +29 +31 жарко 1011.9 997.8
15 18.06 СЗ 3 20 км 3/3 600 м
[Cu hum]
+28.2 +8.0 28 +28 +29 жарко 1011.0 996.8 +30.0
18 18.06 С 1 20 км 3/0
[Ci sp]
+24.4 +7.9 35 +25 +25 комфорт 1011.8 997.5
21 18.06 ЮЗ 2 20 км ясно +22.7 +9.1 42 +24 +24 комфорт 1011.9 997.4
00 19.06 ЮЗ 2 20 км ясно +20.3 +9.4 50 +22 +22 комфорт 1012.1 997.5
03 19.06 ЮЗ 2 20 км 4/0
[Ac trans]
+20.1 +10.9 55 +22 +24 комфорт 1011.9 997.3 +19.8
06 19.06 З 1 20 км 8/3 600 м
[Cu med, cong Ac trans]
+26.2 +14.8 49 +29 +34 жарко 1011.9 997.7 +19.4
09 19.06 СЗ 2 20 км 8/8 600 м
[Cu med, cong]
+30.2 +12.4 34 +31 +35 жарко 1011.1 997.0
12 19.06 ЮЗ 2
{10}
20 км 8/6 600 м
[Cb calv Ac trans]
+25.1 +16.0 57 +28 +32 жарко 1011.7 997.4

 

Местоположение метеостанции Серафимович (Волгоградская область, Россия): широта 49.57 долгота 42.73 высота над уровнем моря 129 м.

В архиве по умолчанию представлена погода в Серафимовиче за последнюю неделю. Архивные данные за месяц целиком и за предыдущие месяцы, начиная с января 2011 года, Вы можете получить, выбрав интересующий диапазон дат из раскрывающегося списка и нажав кнопку "Ввод!".


*Определитесь, кто Вы:
робот инопланетянин человек

Внимание! Время в таблицах - всемирное. Для получения местного времени необходимо прибавить поправку, которая равна 3 ч.

Смотрите также архив погоды в соседних городах и на ближайших метеорологических станциях:

Погода в Михайловке (Волгоградская область, Россия) (69 км)
Погода в Фролове (Волгоградская область, Россия) (72 км)
Погода в Боковской (Ростовская область, Россия) (76 км)
Погода в Иловле (Волгоградская область, Россия) (97 км)
Погода в Новоаннинском (Волгоградская область, Россия) (107 км)
Погода в Калаче-на-Дону (Волгоградская область, Россия) (113 км)
Погода в Казанской (Ростовская область, Россия) (117 км)
Погода в Даниловке (Волгоградская область, Россия) (133 км)
Погода в Ольховке (Волгоградская область, Россия) (135 км)
Погода в Нижнем Чире (Волгоградская область, Россия) (141 км)

Пояснения к столбцам:

Ветер - указаны скорость ветра в м/с - средняя за 10 мин, порывы в срок и между сроками (в фигурных скобках) и направление, откуда дует ветер: С - северный, СВ - северо-восточный, В - восточный, ЮВ - юго-восточный, Ю - южный, ЮЗ - юго-западный, З - западный, СЗ - северо-западный.
Видимость - горизонтальная дальность видимости в метрах или километрах. При видимости от 1 до 10 км при отсутствии осадков обычно наблюдается дымка, при ухудшении видимости до 1 км и менее - туман. В сухую погоду видимость может ухудшаться дымом, пылью или мглою.
Явления - указаны атмосферные явления, наблюдавшиеся в срок или в последний час перед сроком; фигурными скобками обозначены явления, наблюдавшиеся между сроками (за 1-3 часа до срока); квадратными скобками обозначены град или гололедные отложения с указанием их диаметра в мм.
Облачность - указаны через наклонную черту общая и нижняя облачность в баллах и высота нижней границы облаков в метрах; квадратными скобками обозначены формы облаков: Ci - перистые, Cs - перисто-слоистые, Cc - перисто-кучевые, Ac - высококучевые, As - высокослоистые, Sc - слоисто-кучевые, Ns - слоисто-дождевые, Cu - кучевые, Cb - кучево-дождевые. Подробнее классификацию облаков см. в Атласе облаков (PDF).
T - Температура воздуха - температура, измеренная на высоте 2 м над землей.
Td - Температура точки росы - температура, при понижении до которой содержащийся в воздухе водяной пар достигнет насыщения.
f - Относительная влажность воздуха - влажноcть воздуха, измеренная на высоте 2 м над землей.
Te - Эффективная температура - температура, которую ощущает одетый по сезону человек в тени. Характеристика душности погоды. При расчете учитывается влияние влажности воздуха и скорости ветра на теплоощущения человека.
Tes - Эффективная температура на солнце - температура, которую ощущает человек, с поправкой на солнечный нагрев. Характеристика знойности погоды. Зависит от высоты солнца над горизонтом, облачности и скорости ветра. Ночью, в пасмурную погоду, а также при ветре 12 м/с и более поправка равна нулю.
P - Атмосферное давление - приведенное к уровню моря атмосферное давление.
Po - Атмосферное давление - измеренное на уровне метеостанции атмосферное давление.
Tmin - Минимальная температура - минимум температуры воздуха на высоте 2 м над землей.
Tmax - Максимальная температура - максимум температуры воздуха на высоте 2 м над землей.
R - Количество осадков - Количество выпавших осадков за период времени, мм. При наведении курсора мыши на число - период времени, за который выпало указанное количество осадков.
R24 - Количество осадков - Количество выпавших осадков за 24 часа, мм.
S - Снежный покров - Высота снежного покрова, см. При наведении курсора мыши на число - состояние снежного покрова и степень покрытия местности в баллах.